Location: Hilton Head Island
(32.2163°N, 80.7526°W)
Time: 18:04:32
(UTC-04:00)

A-11 Canister half - Pass Details

Date: 18 February 2026
Orbit: 1525 x 1683 km, 47.3° (Epoch: 10 March)

Event Time Altitude Azimuth Distance (km) Brightness Sun altitude
Rises 20:04:25 0° 297° (WNW) 4,683 12.6 -24.5°
Reaches altitude 10° 20:07:57 10° 307° (NW) 3,693 11.7 -25.2°
Maximum altitude 20:16:05 33° 9° (N) 2,362 9.9 -26.9°
Enters shadow 20:18:56 28° 39° (NE) 2,570 9.8 -27.5°
